Regional Weather Roundup
Issued by NWS

Home | Current Version | Previous Version | Text Only | Print | Product List | Glossary On
Versions: 1 2 3 4 5 6 7 8 9 10 11 12 13 14 15 16 17 18 19 20 21 22 23 24 25 26 27
000
ASUS45 KREV 201910
RWRNV
NEVADA REGIONAL WEATHER ROUNDUP
NATIONAL WEATHER SERVICE RENO NV
1200 PM PDT SUN APR 20 2014

NOTE: "FAIR" INDICATES FEW OR NO CLOUDS BELOW 12,000 FEET WITH NO
SIGNIFICANT WEATHER AND/OR OBSTRUCTIONS TO VISIBILITY.

NVZ001-003-004-202000-
WESTERN NEVADA

CITY           SKY/WX    TMP DP  RH WIND       PRES   REMARKS
RENO           PTSUNNY   63  20  19 VRB3      30.25F
CARSON CITY    FAIR      61  14  16 CALM      30.25F
MINDEN         SUNNY     61  19  20 CALM      30.26F
SLIDE MTN        N/A     39  19  45 SE9         N/A
PYRAMID LAKE     N/A     57 N/A N/A NE5         N/A
FALLON         PTSUNNY   66  26  22 VRB5      30.23F
LOVELOCK       SUNNY     64  19  17 W5        30.23F
HAWTHORNE      SUNNY     64  23  20 NW14      30.23F
$$

NVZ002-CAZ072-073-202000-
NORTHERN AND CENTRAL SIERRA

CITY           SKY/WX    TMP DP  RH WIND       PRES   REMARKS
S. LAKE TAHOE  SUNNY     59  19  21 NE9       30.27F
TRUCKEE        PTSUNNY   57  23  26 NE5       30.27R
SQUAW VLY 8000   N/A     48  16  27 CALM        N/A
SUSANVILLE     SUNNY     63  34  34 NE8       30.26F
BLUE CANYON    SUNNY     63  12  13 VRB3      30.24S
MAMMOTH LAKES  FAIR      64  12  13 SE10      30.26F
BRIDGEPORT     FAIR      61   7  11 VRB3      30.23F
$$

NVZ030-031-036-202000-
NORTHERN NEVADA

CITY           SKY/WX    TMP DP  RH WIND       PRES   REMARKS
ELKO           SUNNY     61  23  23 W10G16    30.22F
WINNEMUCCA     SUNNY     62  17  17 N6        30.26F
WENDOVER       SUNNY     66  25  20 E9        30.18F
$$

NVZ035-037-202000-
CENTRAL NEVADA

CITY           SKY/WX    TMP DP  RH WIND       PRES   REMARKS
ELY            MOSUNNY   66  28  24 N10G17    30.21F
EUREKA           N/A     62  23  22 VRB7G18   30.24F
$$

NVZ013-014-202000-
SOUTH CENTRAL NEVADA

CITY           SKY/WX    TMP DP  RH WIND       PRES   REMARKS
TONOPAH        SUNNY     68  10  10 NW15G21   30.21F
$$

NVZ017-020-022-202000-
SOUTHERN NEVADA

CITY           SKY/WX    TMP DP  RH WIND       PRES   REMARKS
LAS VEGAS      MOSUNNY   84  35  17 CALM      29.99F
N. LAS VEGAS   SUNNY     82  34  17 CALM      30.03F
NELLIS AFB     SUNNY     82  38  20 VRB5      30.02F
HENDERSON      SUNNY     85  36  17 CALM      30.05F
MERCURY        SUNNY     79  35  20 W12       30.09F
$$



USA.gov is the U.S. government's official web portal to all federal, state and local government web resources and services.